Location: Bu�n Treun
(12.1333°N, 108.3167°E)
Time: 23:02:47
(UTC+00:00)

COSMOS 2487 - Pass Details

Date: 13 July 2020
Orbit: 441 x 443 km, 74.7° (Epoch: 03 August)

Event Time Altitude Azimuth Distance (km) Brightness Sun altitude
Exits shadow 21:07:08 34° 312° (NW) 748 3.3 -19.0°
Drops below altitude 10° 21:09:41 10° 353° (N) 1,554 5.4 -18.5°
Sets 21:11:51 0° 1° (N) 2,423 6.5 -18.0°
